Regional Weather Roundup
Issued by NWS Sioux Falls, SD

Home | Current Version | Previous Version | Text Only | Print | Product List | Glossary On
Versions: 1 2 3 4 5 6 7 8 9 10 11 12 13 14 15 16 17 18 19 20 21 22 23 24 25 26 27 28 29 30 31 32 33 34 35 36 37 38 39 40 41 42 43 44 45 46 47 48 49 50
000
ASUS43 KFSD 200610
RWRFSD

WEATHER ROUNDUP FOR SE SOUTH DAKOTA/SW MINNESOTA/NW IOWA
NATIONAL WEATHER SERVICE SIOUX FALLS SD
100 AM CDT WED AUG 20 2014

NOTE: "FAIR" INDICATES FEW OR NO CLOUDS BELOW 12,000 FEET WITH NO
SIGNIFICANT WEATHER AND OR OBSTRUCTIONS TO VISIBILITY.


SDZ038>040-050-052>070-200700-
SOUTHEAST SOUTH DAKOTA

CITY           SKY/WX    TMP DP  RH WIND       PRES   REMARKS
CHAMBERLAIN    CLOUDY    67  64  91 SE7       29.75F
6HR MIN TEMP:  67; 6HR MAX TEMP:  82;

HURON          PTCLDY    67  62  84 SE8       29.76F
6HR MIN TEMP:  67; 6HR MAX TEMP:  83;

MADISON        FAIR      66  66 100 SE5       29.83S
MITCHELL       MOCLDY    68  63  84 SE7       29.78F
6HR MIN TEMP:  67; 6HR MAX TEMP:  82;

SIOUX FALLS    FAIR      67  63  87 CALM      29.82R
6HR MIN TEMP:  67; 6HR MAX TEMP:  83;

WINNER         FAIR      74  66  76 SE14      29.75F
YANKTON        FAIR      68  64  88 E5        29.79F
$$

MNZ071-072-080-081-089-090-097-098-200700-
SOUTHWEST MINNESOTA

CITY           SKY/WX    TMP DP  RH WIND       PRES   REMARKS
FAIRMONT       FAIR      66  50  55 CALM      29.83R
JACKSON        FAIR      64  61  88 S5        29.85R
LUVERNE        FAIR      64  63  94 CALM      29.84R
MARSHALL       FAIR      66  61  82 S6        29.81S
6HR MIN TEMP:  66; 6HR MAX TEMP:  81;

MONTEVIDEO     FAIR      66  64  94 CALM      29.81S
PIPESTONE      FAIR      68  63  83 CALM      29.84S
REDWOOD FALLS  FAIR      67  64  90 CALM      29.80S
TRACY          FAIR      68  64  88 CALM      29.83S
WINDOM         FAIR      64  63  94 CALM      29.84S
WORTHINGTON    FAIR      64   9  11 SW3       29.86R
$$

IAZ001>003-012>014-020>022-031-032-NEZ013-014-SDZ071-200700-
NORTHWEST IOWA

CITY           SKY/WX    TMP DP  RH WIND       PRES   REMARKS
CHEROKEE       FAIR      65  65 100 CALM      29.83S
DENISON        FAIR      66  66 100 CALM      29.82R FOG
ESTHERVILLE    FAIR      64  63  96 CALM      29.84R
LE MARS        FAIR      66  64  94 CALM      29.82S
ORANGE CITY    FAIR      70  63  78 E5        29.83S
SHELDON        FAIR      63  63 100 CALM      29.83R
SIOUX CITY     FAIR      69  65  86 SE5       29.81R
6HR MIN TEMP:  69; 6HR MAX TEMP:  83;

SPENCER        FAIR      64  62  93 CALM      29.84R
6HR MIN TEMP:  64; 6HR MAX TEMP:  79;

STORM LAKE     FAIR      66  66 100 CALM      29.84S
$$

ABBREVIATIONS USED IN REMARKS
   TC - TEMPERATURE IN CELSIUS
  WCI - WIND CHILL INDEX
   HX - HEAT INDEX
  VSB - VISIBILITY



USA.gov is the U.S. government's official web portal to all federal, state and local government web resources and services.